This is the latest recevied weather packets stored in our database for station/object VK3MAK-1. If no packets are shown the sender has not sent any weather packets the latest 10 day(s).
| Time | Temp. | Humidity | Pressure | Rain* | Wind** | Luminosity | Snow |
|---|---|---|---|---|---|---|---|
| 1777576203 | 11.11° C | 63% | 1021.6 hPa | 0 mm | 3.13 m/s, 23° | - | - |
| 1777575604 | 11.11° C | 60% | 1021.6 hPa | 0 mm | 1.79 m/s, 0° | - | - |
| 1777575004 | 11.11° C | 60% | 1021.6 hPa | 0 mm | 1.79 m/s, 0° | - | - |
| 1777574404 | 11.11° C | 60% | 1021.6 hPa | 0 mm | 1.79 m/s, 0° | - | - |
| 1777573803 | 13.33° C | 54% | 1021.5 hPa | 0 mm | 2.68 m/s, 0° | - | - |
| 1777573203 | 13.33° C | 54% | 1021.5 hPa | 0 mm | 2.68 m/s, 0° | - | - |
| 1777572608 | 13.33° C | 54% | 1021.5 hPa | 0 mm | 2.68 m/s, 0° | - | - |
| 1777572004 | 13.89° C | 53% | 1021.4 hPa | 0 mm | 3.13 m/s, 23° | - | - |
| 1777571404 | 13.89° C | 53% | 1021.4 hPa | 0 mm | 3.13 m/s, 23° | - | - |
| 1777570803 | 13.89° C | 53% | 1021.4 hPa | 0 mm | 3.13 m/s, 23° | - | - |
| 1777570204 | 13.33° C | 53% | 1021.8 hPa | 0 mm | 2.24 m/s, 23° | - | - |
| 1777569604 | 13.33° C | 53% | 1021.8 hPa | 0 mm | 2.24 m/s, 23° | - | - |
| 1777569003 | 13.33° C | 53% | 1021.8 hPa | 0 mm | 2.24 m/s, 23° | - | - |
| 1777568404 | 13.89° C | 53% | 1021.9 hPa | 0 mm | 2.68 m/s, 23° | - | - |
| 1777567803 | 13.89° C | 53% | 1021.9 hPa | 0 mm | 2.68 m/s, 23° | - | - |
| 1777567203 | 13.89° C | 53% | 1021.9 hPa | 0 mm | 2.68 m/s, 23° | - | - |
| 1777566604 | 14.44° C | 51% | 1021.9 hPa | 0 mm | 3.58 m/s, 23° | - | - |
| 1777566004 | 14.44° C | 51% | 1021.9 hPa | 0 mm | 3.58 m/s, 23° | - | - |
| 1777565403 | 14.44° C | 51% | 1021.9 hPa | 0 mm | 3.58 m/s, 23° | - | - |
| 1777564803 | 14.44° C | 52% | 1022.1 hPa | 0 mm | 3.13 m/s, 23° | - | - |
| 1777564203 | 14.44° C | 52% | 1022.1 hPa | 0 mm | 3.13 m/s, 23° | - | - |
| 1777563604 | 14.44° C | 52% | 1022.1 hPa | 0 mm | 3.13 m/s, 23° | - | - |
| 1777563003 | 16.11° C | 47% | 1022.3 hPa | 0 mm | 3.13 m/s, 0° | - | - |
| 1777562404 | 16.11° C | 47% | 1022.3 hPa | 0 mm | 3.13 m/s, 0° | - | - |
| 1777561804 | 16.11° C | 47% | 1022.3 hPa | 0 mm | 3.13 m/s, 0° | - | - |
* Rain latest hour (hover to see other rain measurements)
** Current wind speed in m/s (hover to see current wind gust speed)